Presure
162 151 179 156 174 186 183 183 192 198 213 224 233 242 243 255 270 342 321 300 287 271 439 430 423 468 468 406 351 340 344 389 381 337 324 315 272 261 388 317 293 305 318 331
162 172 184 171 166 176 182 180 193 194 212 220 228 229 239 246 253 319 331 312 298 283 271 399 400 438 467 462 394 333 332 337 373 391 327 321 316 255 258 307 290 288 299 303
168 176 169 174 172 170 191 177 197 197 212 215 221 220 233 240 251 260 345 317 302 288 279 275 381 403 455 468 413 393 328 330 351 381 317 311 311 305 258 289 300 293 301 300
170 176 162 169 181 166 183 189 205 199 208 214 218 224 221 237 242 248 275 333 317 300 282 282 280 347 428 471 486 396 391 351 334 358 370 317 312 312 310 256 273 294 289 295
173 164 165 176 168 179 174 194 210 201 204 216 211 221 227 228 241 242 253 297 328 316 302 277 282 334 342 439 479 490 396 383 367 319 346 349 329 377 296 284 283 261 284 286
174 172 168 181 169 170 174 188 207 192 206 210 209 217 223 225 232 242 243 260 336 323 309 297 276 272 323 330 417 497 492 395 375 349 348 351 349 352 310 292 279 287 254 259
159 168 175 171 165 163 170 192 194 193 203 213 215 214 223 218 223 238 236 251 254 329 319 311 287 276 263 302 326 409 496 500 391 369 344 336 345 344 347 344 314 297 292 277
173 158 178 160 174 162 194 172 192 196 195 207 212 213 219 227 220 225 235 238 247 264 329 315 296 286 274 265 274 324 393 487 490 391 365 340 332 330 331 337 345 321 290 286
172 166 173 179 175 165 193 193 192 190 190 203 205 211 220 224 217 220 232 236 247 251 331 326 311 290 281 286 276 261 328 352 484 469 402 364 341 334 324 321 319 331 331 336
170 174 164 175 167 177 158 188 186 188 193 203 205 210 218 219 218 213 226 235 235 245 249 330 323 305 283 286 299 296 266 326 325 460 474 456 378 341 333 318 314 313 316 315
171 173 168 183 169 187 180 186 190 184 196 202 210 201 212 212 220 214 219 229 232 238 244 286 329 319 294 280 293 304 305 285 319 317 401 476 492 387 342 325 323 311 306 297
166 160 166 165 168 180 168 189 187 185 179 199 209 203 207 215 215 219 214 223 229 236 240 243 334 320 298 281 286 304 315 311 296 322 311 334 467 471 399 362 328 317 323 323
176 157 165 184 161 168 165 185 189 190 176 201 199 204 213 215 211 215 213 219 223 229 237 245 246 327 312 293 288 297 318 327 310 337 321 309 312 444 452 417 363 341 325 310
161 172 169 166 180 171 164 165 184 190 176 192 205 204 208 212 211 216 213 213 225 222 235 242 243 322 323 307 282 296 311 339 324 310 327 319 306 302 337 435 420 388 346 337
162 174 166 167 164 175 173 180 182 187 193 196 200 204 203 213 215 206 214 216 218 226 228 232 242 246 325 304 300 296 309 322 334 321 315 324 317 300 301 315 344 408 403 401
173 166 169 165 170 182 175 178 173 187 189 183 194 204 203 210 215 202 219 216 217 221 224 230 241 246 330 286 307 300 309 323 334 330 324 312 321 310 302 296 296 344 337 381
160 163 163 176 168 177 177 181 169 192 186 189 196 200 200 204 220 203 215 215 220 211 222 226 235 247 261 317 312 306 309 333 336 334 332 323 320 320 305 298 287 294 296 330
161 161 168 176 178 174 164 179 168 186 188 173 190 199 208 203 213 208 211 211 219 211 222 222 231 244 247 323 310 311 319 333 343 333 331 324 325 318 316 304 295 286 289 286
164 164 173 178 170 174 174 177 168 191 185 173 192 200 204 207 204 218 214 210 217 211 217 220 230 241 242 324 314 323 331 340 354 346 334 330 325 322 317 310 307 293 284 283
162 171 165 170 173 176 182 174 169 185 181 176 194 198 205 213 204 217 203 208 215 207 215 220 228 237 242 276 320 326 344 351 370 351 346 336 334 324 322 318 306 309 292 283
162 160 171 172 183 182 181 177 166 187 183 201 192 198 196 202 202 219 206 210 215 207 217 216 227 236 240 283 324 335 349 360 374 376 356 343 340 352 334 322 314 309 311 291
163 158 183 164 184 186 187 175 182 187 200 199 195 201 193 201 201 221 219 207 215 212 214 217 225 233 240 266 319 314 363 379 387 377 367 363 350 339 348 341 346 322 309 312
166 155 176 184 181 159 194 180 194 192 172 200 192 213 192 205 209 218 210 208 220 210 213 218 224 233 242 266 321 347 384 397 402 395 384 364 357 360 350 344 363 344 323 310
174 178 184 182 163 192 190 181 194 192 172 201 197 212 193 207 217 219 206 217 220 209 210 217 226 229 244 252 320 371 396 412 412 398 394 379 372 363 360 361 354 373 345 322
165 176 170 180 173 184 189 181 183 180 193 206 192 206 206 207 213 219 208 216 219 213 216 219 220 231 242 257 326 387 416 426 422 416 405 408 394 387 383 372 367 377 368 342
179 185 180 176 177 204 186 184 177 182 178 207 203 207 215 206 206 221 207 215 217 217 221 224 226 236 246 313 333 415 433 435 436 434 424 435 427 406 385 390 403 388 377 352
181 180 177 177 196 198 182 191 204 178 213 195 199 199 208 205 216 222 205 214 211 214 221 221 234 236 237 306 393 439 467 431 427 418 416 409 411 404 404 399 394 386 375 362
Wind_Speed
66 63 73 75 86 91 94 100 106 109 108 107 108 117 120 135 140 94 89 87 84 81 54 47 43 30 16 10 4 5 10 20 32 50 56 56 53 56 58 66 64 66 62 62
67 72 69 80 84 89 93 98 102 105 104 104 110 119 123 129 135 110 90 88 84 83 82 60 53 39 25 8 13 1 8 17 28 37 58 59 55 57 56 64 68 66 63 65
68 69 75 79 84 89 92 96 100 103 103 108 109 108 123 123 132 139 88 89 89 86 82 80 62 48 30 17 13 12 8 15 25 33 55 54 54 53 56 58 63 63 63 64
66 67 76 80 82 88 93 95 95 100 101 105 109 113 116 126 126 131 144 86 83 81 80 81 77 64 42 29 13 16 15 17 20 29 41 58 59 57 58 59 59 60 61 61
63 71 76 78 85 88 95 93 94 100 103 104 107 111 118 121 129 127 137 121 84 81 79 75 75 63 60 39 24 8 18 19 27 24 31 40 54 45 57 60 63 55 59 60
62 69 76 76 85 89 93 93 95 102 103 103 104 107 112 119 124 127 131 142 83 82 79 75 72 72 63 59 39 17 3 24 24 30 33 35 40 46 62 63 61 65 56 57
67 69 71 77 85 87 92 94 96 101 104 103 106 107 111 113 121 128 125 141 134 82 79 75 75 72 67 63 55 41 18 7 27 33 33 36 37 42 46 54 74 71 69 62
62 71 69 78 80 87 87 95 96 99 105 105 108 111 114 121 118 125 126 132 133 143 76 76 75 71 69 64 61 51 42 16 6 33 39 38 40 43 45 47 52 76 67 68
62 70 70 73 78 89 87 92 95 99 105 104 106 107 111 119 118 122 126 130 133 138 79 72 71 70 68 64 61 57 48 44 17 2 31 44 44 46 47 48 51 52 55 55
63 64 73 73 83 84 79 91 94 99 104 103 104 106 109 113 117 115 127 132 130 136 138 71 68 70 71 69 66 61 52 45 41 17 3 15 42 50 51 50 51 52 54 56
63 65 72 71 80 81 88 90 94 97 103 104 103 105 107 107 118 116 122 130 127 134 135 110 68 68 71 73 68 63 56 50 41 36 25 6 4 46 55 52 56 55 53 54
64 70 72 76 80 81 89 91 93 97 99 106 104 105 106 109 113 123 120 125 130 135 135 135 69 69 73 75 71 65 55 51 45 36 32 30 6 12 47 54 58 55 60 61
58 71 71 69 79 85 89 91 94 98 97 104 106 106 106 109 109 117 120 124 126 131 135 136 137 68 69 73 73 68 58 48 45 35 32 28 26 5 22 38 50 58 62 58
65 62 68 72 73 80 87 89 94 97 97 104 104 105 107 109 109 116 117 119 129 126 137 137 132 76 67 71 78 70 62 46 43 40 33 28 25 20 19 20 31 45 52 57
66 61 69 71 78 78 84 89 93 97 102 103 104 105 107 109 113 106 115 123 126 132 135 135 136 139 70 78 74 73 65 54 41 37 34 28 24 20 17 15 10 25 27 34
61 67 68 73 74 78 83 87 91 95 98 101 103 104 106 108 112 104 122 122 124 128 134 134 140 142 73 92 75 74 67 56 43 37 32 28 23 23 17 14 11 11 3 10
66 69 72 68 74 77 82 86 87 97 95 100 102 105 106 107 113 105 122 122 126 114 134 135 140 146 128 77 76 75 69 52 43 37 32 28 23 18 20 17 12 9 9 6
65 70 72 70 73 77 85 86 89 95 96 95 101 106 106 106 109 107 114 119 127 118 134 134 141 144 141 79 81 74 68 54 39 38 32 30 26 21 17 17 18 14 10 10
63 69 70 72 73 76 82 85 89 98 95 95 102 106 107 105 106 110 114 116 125 118 130 135 141 142 142 86 83 73 65 55 39 34 33 29 27 25 22 20 19 19 18 15
66 70 73 73 72 75 77 83 88 94 94 96 101 105 109 107 105 111 97 110 125 115 130 136 142 144 143 128 87 78 67 56 37 35 32 30 30 26 26 24 22 23 23 23
66 72 76 77 75 76 77 82 88 92 92 99 98 104 105 106 105 114 105 114 127 112 132 132 143 145 143 125 91 82 69 58 43 35 32 31 32 32 29 28 28 26 27 28
66 72 80 78 75 76 74 80 88 91 99 98 99 105 104 107 105 117 117 110 127 122 126 133 141 143 141 140 97 91 68 55 40 37 36 33 32 32 31 32 31 32 31 32
70 71 80 83 76 80 76 82 94 93 92 99 99 111 105 108 112 118 111 111 130 119 124 135 139 145 143 147 101 83 66 54 42 34 33 36 35 35 34 33 32 36 36 36
75 82 84 83 78 81 77 82 95 94 94 103 103 114 107 112 120 121 110 127 133 116 117 134 142 140 148 130 107 81 67 53 44 40 35 34 36 38 36 37 36 35 40 40
75 80 82 83 79 84 81 86 91 95 98 107 101 112 113 112 121 125 113 128 134 128 133 136 132 144 146 128 108 79 63 52 46 43 40 39 40 41 41 38 38 37 39 41
81 87 85 83 81 92 85 89 92 96 99 111 112 115 120 111 116 129 116 128 135 136 139 143 141 153 154 119 107 72 59 51 46 43 41 39 37 37 36 36 37 36 38 40
84 83 82 82 91 88 85 92 101 97 114 103 110 112 117 112 126 130 115 129 127 136 139 137 151 149 142 123 87 63 50 51 46 43 39 37 35 34 34 34 34 35 37 40
Wind_Direction
346 351 343 354 346 345 348 350 348 350 353 2 6 12 16 19 18 11 14 15 15 17 21 21 24 28 38 211 266 210 189 187 182 185 193 206 208 214 194 195 215 225 220 218
346 343 345 347 351 347 349 351 350 352 354 359 7 11 15 18 19 14 12 14 16 18 19 23 23 23 26 54 226 214 188 179 181 189 195 202 208 217 219 200 215 224 224 222
345 343 346 347 349 350 347 352 351 353 356 359 6 9 14 17 19 20 13 15 16 16 18 20 24 26 29 32 219 231 195 188 181 183 199 204 210 210 217 208 212 220 223 223
344 342 348 349 347 353 349 353 354 355 358 360 4 11 14 16 19 20 20 14 17 17 18 20 19 22 19 20 35 230 215 194 193 189 191 205 212 212 207 220 220 215 223 227
342 345 346 347 350 350 352 353 357 356 359 3 3 9 14 15 17 20 20 19 15 16 17 20 21 23 25 26 26 33 230 207 195 200 197 198 204 203 207 214 219 224 224 225
342 344 347 348 350 351 351 352 0 357 359 1 3 7 13 15 15 18 19 21 13 14 16 17 19 23 24 26 27 36 119 220 200 202 201 201 200 201 207 213 221 221 224 225
349 345 347 349 349 353 352 352 357 357 359 3 4 6 12 14 15 16 18 20 20 12 13 15 17 19 21 24 26 32 45 64 215 199 206 207 200 201 203 208 212 217 222 226
342 350 349 352 348 352 352 351 357 359 358 2 4 5 9 15 15 15 16 18 19 19 12 12 14 16 15 19 22 25 32 49 64 216 203 209 211 206 205 205 206 216 222 225
344 346 349 352 348 348 353 354 358 359 358 0 3 5 10 15 13 14 14 16 18 18 12 11 12 13 13 16 16 20 24 30 41 124 217 207 212 214 214 213 212 207 208 213
344 348 346 350 347 347 355 353 357 359 357 360 2 4 9 12 14 13 13 14 15 17 16 9 10 10 11 12 13 15 18 21 26 38 35 223 212 216 216 220 220 218 213 211
343 345 346 354 347 355 350 353 358 359 357 359 2 1 5 8 14 13 12 13 14 14 15 13 9 10 10 10 10 11 13 14 18 22 30 14 283 221 217 223 221 224 222 225
341 345 343 344 346 350 348 355 357 359 356 357 0 1 2 7 11 13 10 11 12 13 13 13 8 8 8 7 8 8 9 9 10 13 16 23 4 212 224 219 222 225 225 223
341 344 343 353 346 346 346 353 357 359 355 356 357 359 3 6 8 11 11 9 10 11 10 11 12 7 6 6 5 6 6 6 4 5 10 12 18 1 219 225 223 223 227 231
339 340 342 344 352 345 344 347 354 357 354 355 357 358 0 4 5 9 10 8 9 10 10 8 10 7 5 5 3 3 2 3 2 0 360 3 6 11 26 233 230 231 227 227
337 339 338 343 343 346 344 348 352 356 358 356 355 357 357 3 6 3 9 9 8 9 8 7 7 8 4 3 2 1 360 358 359 358 355 352 355 357 2 16 38 237 243 240
336 336 339 341 344 350 343 348 347 354 355 352 353 357 357 360 4 0 6 7 7 7 7 6 5 6 3 2 0 359 357 355 352 351 349 349 344 341 345 347 349 12 40 243
334 334 337 341 341 345 345 349 345 352 352 353 353 355 355 357 4 360 4 4 6 5 6 4 4 3 3 359 358 356 355 352 346 345 342 339 336 331 326 327 323 325 327 323
330 332 334 340 344 343 340 345 345 349 352 347 350 355 356 353 0 360 3 3 4 4 4 3 3 2 1 358 356 354 351 351 341 338 334 331 325 320 312 303 305 300 292 283
326 327 333 339 340 342 342 343 342 347 348 345 349 353 353 353 354 360 3 2 2 3 2 1 1 359 360 356 353 352 350 348 338 328 326 320 314 311 303 294 281 284 282 273
327 328 331 334 340 341 346 339 340 344 343 345 348 351 351 352 350 357 354 2 1 1 0 359 358 358 357 355 352 350 349 345 332 328 317 312 304 298 294 284 276 267 270 270
324 327 328 331 337 342 342 340 337 342 341 350 346 349 348 348 349 356 354 1 359 360 358 358 356 356 356 352 349 349 346 339 331 317 311 307 303 295 286 278 272 264 255 258
322 326 327 327 337 342 341 333 337 340 346 348 346 348 345 346 348 353 355 357 358 357 357 356 354 355 354 352 349 347 342 335 325 311 305 299 293 291 285 279 268 259 255 248
320 328 324 328 335 333 344 335 343 340 337 345 343 348 343 346 348 351 352 353 355 356 354 354 352 352 352 350 347 344 337 331 323 308 293 294 292 286 280 275 275 255 252 248
322 321 324 325 331 339 338 333 341 338 335 344 344 346 342 345 350 349 348 352 353 353 353 352 351 350 350 348 345 340 334 327 319 313 300 293 284 285 281 275 269 264 248 247
322 320 315 322 325 332 337 331 331 333 338 343 340 343 343 345 348 347 347 350 351 351 350 349 349 348 348 346 343 336 328 321 314 307 300 289 283 280 278 274 268 264 250 245
316 319 319 319 327 336 334 331 329 331 329 341 342 341 341 343 344 346 346 348 349 349 347 347 347 345 346 341 340 330 323 317 311 306 302 294 286 282 280 275 267 259 251 247
316 317 313 320 332 333 328 333 338 328 338 335 337 339 340 340 343 344 343 346 347 346 345 344 346 344 344 339 333 325 314 318 314 310 306 301 294 287 279 272 265 258 252 248